When you browse on this site, cookies collect data to enhance your experience and personalize the content and advertising you see.
Visit our Privacy Policy to learn more. By continuing to use the site, you agree to this use of cookies and data.
  • In Hungary
  • List of Countries
  • For 7 days
  • Water Temperature
  • Satellite Maps
  • Weather Map
  • News
  • Weather Widgets
  • user-avatar
    Login

    Hourly Weather Sloboda

    Today, 17 December, Monday

    Time Temperature Precipitation Wind Pressure Humidity
    00:00 -7°C° 0 mm 5 mps 740 mmHg 92%
    01:00 -7°C° 0 mm 5 mps 740 mmHg 93%
    02:00 -8°C° 0 mm 4 mps 740 mmHg 93%
    03:00 -8°C° 0 mm 4 mps 740 mmHg 93%
    04:00 -8°C° 0 mm 5 mps 739 mmHg 94%
    05:00 -8°C° 0 mm 5 mps 739 mmHg 94%
    06:00 -8°C° 0 mm 5 mps 739 mmHg 94%
    07:00 -10°C° 0 mm 5 mps 739 mmHg 94%
    08:00 -10°C° 0 mm 5 mps 739 mmHg 94%
    09:00 -10°C° 0 mm 5 mps 739 mmHg 94%
    10:00 -10°C° 0 mm 5 mps 739 mmHg 94%
    11:00 -10°C° 0 mm 5 mps 739 mmHg 94%
    12:00 -9°C° 0.1 mm 4 mps 739 mmHg 94%
    13:00 -8°C° 0.1 mm 4 mps 739 mmHg 94%
    14:00 -8°C° 0.1 mm 4 mps 739 mmHg 94%
    15:00 -8°C° 0.1 mm 4 mps 739 mmHg 93%
    16:00 -9°C° 0.1 mm 4 mps 739 mmHg 93%
    17:00 -9°C° 0.1 mm 4 mps 739 mmHg 93%
    18:00 -8°C° 0.1 mm 3 mps 739 mmHg 93%
    19:00 -8°C° 0.1 mm 3 mps 740 mmHg 93%
    20:00 -8°C° 0.1 mm 3 mps 740 mmHg 93%
    21:00 -8°C° 0 mm 3 mps 740 mmHg 93%
    22:00 -8°C° 0 mm 3 mps 740 mmHg 93%
    23:00 -7°C° 0 mm 2 mps 741 mmHg 93%

    Tomorrow, 18 December, Tuesday

    Time Temperature Precipitation Wind Pressure Humidity
    00:00 -7°C° 0 mm 2 mps 741 mmHg 94%
    01:00 -7°C° 0 mm 2 mps 741 mmHg 94%
    02:00 -7°C° 0 mm 2 mps 741 mmHg 95%
    03:00 -7°C° 0.1 mm 2 mps 741 mmHg 95%
    04:00 -6°C° 0.1 mm 1 mps 741 mmHg 96%
    05:00 -6°C° 0.1 mm 1 mps 741 mmHg 96%
    06:00 -6°C° 0.2 mm 1 mps 741 mmHg 96%
    07:00 -6°C° 0.2 mm 1 mps 742 mmHg 96%
    08:00 -6°C° 0.2 mm 1 mps 742 mmHg 96%
    09:00 -6°C° 0.2 mm 1 mps 742 mmHg 95%
    10:00 -4°C° 0.2 mm 1 mps 742 mmHg 95%
    11:00 -4°C° 0.2 mm 1 mps 743 mmHg 94%
    12:00 -4°C° 0.3 mm 1 mps 742 mmHg 93%
    13:00 -4°C° 0.3 mm 1 mps 742 mmHg 93%
    14:00 -4°C° 0.3 mm 1 mps 742 mmHg 93%
    15:00 -4°C° 0.2 mm 1 mps 742 mmHg 94%
    16:00 -4°C° 0.2 mm 1 mps 742 mmHg 95%
    17:00 -4°C° 0.2 mm 1 mps 742 mmHg 96%
    18:00 -4°C° 0.1 mm 1 mps 743 mmHg 96%
    19:00 -6°C° 0.1 mm 1 mps 743 mmHg 96%
    20:00 -6°C° 0.1 mm 1 mps 743 mmHg 96%
    21:00 -6°C° 0.1 mm 1 mps 743 mmHg 96%
    22:00 -6°C° 0.1 mm 1 mps 743 mmHg 96%
    23:00 -6°C° 0.1 mm 1 mps 743 mmHg 96%

    Day after tomorrow, 19 December, Wednesday

    Time Temperature Precipitation Wind Pressure Humidity
    00:00 -6°C° 0.2 mm 1 mps 743 mmHg 96%
    01:00 -6°C° 0.2 mm 1 mps 743 mmHg 96%
    02:00 -6°C° 0.2 mm 1 mps 743 mmHg 96%
    03:00 -7°C° 0 mm 1 mps 743 mmHg 96%
    04:00 -8°C° 0 mm 2 mps 743 mmHg 96%
    05:00 -9°C° 0 mm 2 mps 743 mmHg 95%
    06:00 -9°C° 0 mm 2 mps 743 mmHg 96%
    07:00 -9°C° 0 mm 2 mps 743 mmHg 96%
    08:00 -9°C° 0 mm 1 mps 744 mmHg 96%
    09:00 -8°C° 0 mm 1 mps 744 mmHg 95%
    10:00 -8°C° 0 mm 1 mps 744 mmHg 94%
    11:00 -8°C° 0 mm 1 mps 744 mmHg 93%
    12:00 -9°C° 0 mm 2 mps 744 mmHg 93%
    13:00 -8°C° 0 mm 2 mps 744 mmHg 93%
    14:00 -8°C° 0 mm 2 mps 744 mmHg 93%
    15:00 -9°C° 0 mm 2 mps 744 mmHg 94%
    16:00 -10°C° 0 mm 2 mps 744 mmHg 94%
    17:00 -13°C° 0 mm 2 mps 744 mmHg 95%
    18:00 -13°C° 0 mm 2 mps 744 mmHg 95%
    19:00 -14°C° 0 mm 2 mps 744 mmHg 95%
    20:00 -12°C° 0 mm 1 mps 744 mmHg 96%
    21:00 -12°C° 0 mm 1 mps 744 mmHg 96%
    22:00 -15°C° 0 mm 2 mps 744 mmHg 96%
    23:00 -15°C° 0 mm 2 mps 744 mmHg 97%

    20 December, Thursday

    Time Temperature Precipitation Wind Pressure Humidity
    00:00 -15°C° 0 mm 2 mps 744 mmHg 97%
    01:00 -14°C° 0 mm 2 mps 744 mmHg 97%
    02:00 -14°C° 0 mm 2 mps 744 mmHg 97%
    03:00 -14°C° 0 mm 2 mps 744 mmHg 97%
    04:00 -14°C° 0 mm 2 mps 743 mmHg 97%
    05:00 -14°C° 0 mm 2 mps 743 mmHg 97%
    06:00 -14°C° 0 mm 2 mps 743 mmHg 97%
    07:00 -13°C° 0 mm 2 mps 744 mmHg 97%
    08:00 -13°C° 0 mm 2 mps 744 mmHg 97%
    09:00 -13°C° 0 mm 3 mps 744 mmHg 97%
    10:00 -12°C° 0 mm 3 mps 744 mmHg 96%
    11:00 -11°C° 0 mm 4 mps 744 mmHg 95%
    12:00 -11°C° 0 mm 4 mps 743 mmHg 95%
    13:00 -10°C° 0 mm 4 mps 743 mmHg 95%
    14:00 -9°C° 0 mm 4 mps 742 mmHg 94%
    15:00 -9°C° 0 mm 4 mps 742 mmHg 95%
    16:00 -9°C° 0 mm 4 mps 742 mmHg 95%
    17:00 -9°C° 0 mm 4 mps 742 mmHg 96%
    18:00 -9°C° 0 mm 4 mps 742 mmHg 95%
    19:00 -9°C° 0 mm 4 mps 742 mmHg 95%
    20:00 -9°C° 0 mm 4 mps 742 mmHg 95%
    21:00 -8°C° 0 mm 4 mps 742 mmHg 95%
    22:00 -8°C° 0 mm 4 mps 742 mmHg 95%
    23:00 -8°C° 0 mm 4 mps 742 mmHg 94%

    21 December, Friday

    Time Temperature Precipitation Wind Pressure Humidity
    00:00 -8°C° 0 mm 4 mps 742 mmHg 94%
    01:00 -7°C° 0 mm 4 mps 741 mmHg 94%
    02:00 -7°C° 0 mm 4 mps 741 mmHg 94%
    03:00 -7°C° 0 mm 4 mps 741 mmHg 94%
    04:00 -5°C° 0 mm 4 mps 740 mmHg 95%
    05:00 -5°C° 0 mm 4 mps 740 mmHg 95%
    06:00 -5°C° 0 mm 4 mps 740 mmHg 95%
    07:00 -5°C° 0 mm 3 mps 740 mmHg 95%
    08:00 -5°C° 0 mm 3 mps 740 mmHg 96%
    09:00 -4°C° 0 mm 3 mps 740 mmHg 95%
    10:00 -4°C° 0 mm 3 mps 740 mmHg 95%
    11:00 -4°C° 0 mm 4 mps 740 mmHg 94%
    12:00 -2°C° 0 mm 3 mps 739 mmHg 94%
    13:00 -2°C° 0 mm 3 mps 739 mmHg 94%
    14:00 -2°C° 0 mm 3 mps 739 mmHg 94%
    15:00 -3°C° 0 mm 2 mps 738 mmHg 95%
    16:00 -3°C° 0 mm 2 mps 738 mmHg 95%
    17:00 -3°C° 0 mm 2 mps 738 mmHg 96%
    18:00 -4°C° 0 mm 2 mps 738 mmHg 96%
    19:00 -5°C° 0 mm 2 mps 738 mmHg 96%
    20:00 -5°C° 0 mm 2 mps 738 mmHg 96%
    21:00 -6°C° 0 mm 2 mps 737 mmHg 96%
    22:00 -6°C° 0 mm 2 mps 737 mmHg 96%
    23:00 -6°C° 0 mm 2 mps 736 mmHg 95%

    22 December, Saturday

    Time Temperature Precipitation Wind Pressure Humidity
    00:00 -7°C° 0 mm 2 mps 736 mmHg 95%
    01:00 -7°C° 0 mm 2 mps 735 mmHg 94%
    02:00 -7°C° 0 mm 2 mps 735 mmHg 93%
    03:00 -7°C° 0.1 mm 3 mps 734 mmHg 93%
    04:00 -7°C° 0.1 mm 3 mps 734 mmHg 94%
    05:00 -7°C° 0.1 mm 3 mps 733 mmHg 94%
    06:00 -7°C° 0.4 mm 4 mps 732 mmHg 94%
    07:00 -5°C° 0.4 mm 4 mps 732 mmHg 95%
    08:00 -5°C° 0.4 mm 4 mps 731 mmHg 95%
    09:00 -4°C° 0.1 mm 4 mps 731 mmHg 95%
    10:00 -3°C° 0.1 mm 4 mps 731 mmHg 95%
    11:00 -2°C° 0.1 mm 4 mps 731 mmHg 94%
    12:00 -2°C° 0.1 mm 4 mps 730 mmHg 95%
    13:00 -1°C° 0.1 mm 4 mps 730 mmHg 96%
    14:00 -1°C° 0.1 mm 4 mps 730 mmHg 98%
    15:00 -1°C° 0 mm 4 mps 730 mmHg 94%
    16:00 -1°C° 0 mm 4 mps 729 mmHg 91%
    17:00 -1°C° 0 mm 4 mps 729 mmHg 87%
    18:00 -1°C° 0 mm 4 mps 729 mmHg 88%
    19:00 -1°C° 0 mm 4 mps 729 mmHg 88%
    20:00 -1°C° 0 mm 4 mps 729 mmHg 89%
    21:00 -1°C° 0.1 mm 4 mps 729 mmHg 90%
    22:00 -1°C° 0.1 mm 4 mps 728 mmHg 91%
    23:00 -1°C° 0.1 mm 4 mps 728 mmHg 92%
    Show more